#timestamp,LO_Frequency,Hit,StdDev 
1585224015.7,286046999.7,N
1585224035.6,286047002.3,N
1585224055.4,286047001.9,N
1585224075.2,286047000.0,N
1585224095.1,286047000.7,N
1585224096.0,286047000.7,N
1585224115.8,286047000.9,N
1585224135.7,286046998.1,N
1585224155.5,286047009.6,Y
1585224175.3,286047015.8,P
1585224195.2,286047015.4,N
1585224215.0,286047010.0,N
1585224215.9,286047010.0,N
1585224235.8,286047010.4,N
1585224255.6,286047007.3,N
1585224275.4,286047003.2,N
1585224295.3,286047001.8,N
1585224315.1,286047002.0,N
1585224335.9,286047002.1,N
1585224355.7,286047002.3,N
1585224375.5,286047001.4,N
1585224395.4,286047004.0,N
1585224415.2,286047001.9,N
1585224435.0,286047002.6,N
1585224435.9,286047002.6,N
1585224455.8,286047000.2,N
1585224475.6,286046999.7,N
1585224495.5,286046999.0,N
1585224515.3,286046998.4,N
1585224535.1,286046998.8,N
1585224555.9,286046998.7,N
1585224575.7,286046999.3,N
1585224595.6,286047002.4,N
1585224615.4,286047000.2,N
1585224635.2,286047001.2,N
1585224655.1,286047000.5,N
1585224656.0,286047000.5,N
1585224675.8,286046999.4,N
1585224695.7,286046998.3,N
1585224715.5,286047000.8,N
1585224735.3,286047000.8,N
1585224755.2,286046999.4,N
1585224775.0,286046998.2,N
1585224775.9,286046998.2,N
1585224795.8,286046996.7,N
1585224815.6,286046995.3,N
1585224835.4,286046995.0,N
1585224855.3,286046995.6,N
1585224875.1,286046997.6,N
1585224895.8,286046997.9,N
1585224915.7,286046997.2,N
1585224935.5,286046998.4,N
1585224955.4,286046999.2,N
1585224975.2,286046997.4,N
1585224995.0,286046999.4,N
1585224995.9,286046999.4,N
1585225015.8,286046999.4,N
1585225035.6,286046996.5,N
1585225055.5,286047000.1,N
1585225075.3,286047002.6,N
1585225095.1,286047002.2,N
1585225115.9,286047000.1,N
1585225135.7,286047000.2,N
1585225155.6,286047000.3,N
1585225175.4,286046999.9,N
1585225195.2,286046999.2,N
1585225215.1,286046998.2,N
1585225216.0,286046998.2,N
1585225235.8,286047000.6,N
1585225255.6,286047000.9,N
1585225275.5,286047000.4,N
1585225295.3,286046999.9,N
1585225315.2,286046999.7,N
1585225335.9,286046999.9,N
1585225355.7,286047001.5,N
1585225375.6,286047001.3,N
1585225395.4,286047001.9,N
1585225415.2,286047002.3,N
1585225435.1,286047000.1,N
1585225436.0,286047000.1,N
1585225455.8,286046999.8,N
1585225475.7,286046999.9,N
1585225495.5,286047003.9,N
1585225515.3,286047002.6,N
1585225535.2,286047001.0,N
1585225555.0,286046999.6,N
1585225555.9,286046999.6,N
1585225575.8,286047000.9,N
1585225595.6,286047001.2,N
1585225615.4,286047000.1,N
1585225635.3,286047002.6,N
1585225655.1,286047001.5,N
1585225675.8,286047002.6,N
1585225695.7,286047000.9,N
1585225715.5,286047000.2,N
1585225735.4,286047001.8,N
1585225755.2,286047002.1,N
1585225775.0,286047002.7,N
1585225775.9,286047002.7,N
1585225795.8,286047000.1,N
1585225815.6,286047000.8,N
1585225835.4,286046998.2,N
1585225855.3,286046998.2,N
1585225875.1,286046997.0,N
1585225895.9,286046998.6,N
1585225915.7,286047000.8,N
1585225935.5,286046999.4,N
1585225955.4,286047000.0,N
1585225975.2,286047002.7,N
1585225995.1,286047002.3,N
1585225996.0,286047002.3,N
1585226015.8,286047001.5,N
1585226035.6,286047004.0,N
1585226055.5,286047003.0,N
1585226075.3,286047004.1,N
1585226095.2,286047001.3,N
1585226115.9,286047002.2,N
1585226135.7,286047000.2,N
1585226155.6,286047000.1,N
1585226175.4,286047000.9,N
1585226195.2,286047000.2,N
1585226215.1,286047000.4,N
1585226216.0,286047000.4,N
1585226235.8,286046998.2,N
1585226255.7,286047002.7,N
1585226275.5,286046999.7,N
1585226295.3,286047000.7,N
1585226315.2,286047000.0,N
1585226335.0,286047001.0,N
1585226335.9,286047001.0,N
1585226355.8,286046999.8,N
1585226375.6,286047000.3,N
1585226395.4,286047000.2,N
1585226415.3,286047001.9,N
1585226435.1,286047001.9,N
1585226455.9,286047002.1,N
1585226475.7,286047001.6,N
1585226495.5,286047000.6,N
1585226515.4,286046998.1,N
1585226535.2,286046999.5,N
1585226555.0,286046999.3,N
1585226556.0,286046999.3,N
1585226575.8,286046998.2,N
1585226595.6,286046998.3,N
1585226615.5,286047000.9,N
1585226635.3,286046999.7,N
1585226655.1,286047001.0,N
1585226675.9,286047000.0,N
1585226695.7,286046998.3,N
1585226715.6,286047000.3,N
1585226735.4,286047002.4,N
1585226755.2,286046999.8,N
1585226775.1,286047000.4,N
1585226776.0,286047000.4,N
1585226795.8,286047000.3,N
1585226815.7,286046998.6,N
1585226835.5,286046998.9,N
1585226855.3,286046999.2,N
1585226875.2,286046996.8,N
1585226895.0,286046998.9,N
1585226895.9,286046998.9,N
1585226915.7,286046998.2,N
1585226935.6,286046998.1,N
1585226955.4,286046998.2,N
1585226975.3,286046998.4,N
1585226995.1,286046998.5,N
1585226996.0,286046998.5,N
1585227015.8,286046998.2,N
1585227035.7,286047002.3,N
1585227055.5,286047002.7,N
1585227075.4,286046999.7,N
1585227095.2,286047002.3,N
1585227115.0,286047000.5,N
1585227115.9,286047000.5,N
1585227135.8,286046999.9,N
1585227155.6,286047002.7,N
1585227175.4,286046999.8,N
1585227195.3,286047000.9,N
1585227215.1,286046999.9,N
1585227235.9,286047003.5,N
1585227255.7,286047004.4,N
1585227275.5,286047002.2,N
1585227295.4,286047007.7,Y
1585227315.2,286047015.1,P
1585227335.1,286047015.5,N
1585227336.0,286047015.5,N
1585227355.8,286047009.5,N
1585227375.6,286047009.2,N
1585227395.5,286047005.2,N
1585227415.3,286047002.5,N
1585227435.2,286047000.0,N
1585227455.9,286047000.3,N
1585227475.7,286047000.8,N
1585227495.6,286047001.0,N
1585227515.4,286047001.0,N
1585227535.2,286046999.1,N
1585227555.1,286046998.9,N
1585227556.0,286046998.9,N
1585227575.8,286046998.5,N
1585227595.7,286046999.5,N
